Location: Newark
(44.3681°N, 100.3364°W)
Time: 10:17:53
(UTC+00:00)

Explorer 7 - Pass Details

Date: 27 February 2020
Orbit: 485 x 679 km, 50.3° (Epoch: 28 March)

Event Time Altitude Azimuth Distance (km) Brightness Sun altitude
Rises 21:38:23 0° 297° (WNW) 2,879 10.7 25.6°
Reaches altitude 10° 21:40:46 10° 299° (WNW) 1,939 9.9 25.3°
Maximum altitude 21:45:12 76° 26° (NNE) 590 7.2 24.7°
Drops below altitude 10° 21:49:19 10° 112° (ESE) 1,807 9.3 24.2°
Sets 21:51:29 0° 114° (ESE) 2,666 10.1 23.9°
